| time (UTC) | temp F | wind direction | speed knots | gust knots | rain 1hr in | rain 24hr in | rain mn in | humidity % | barometer mb |
| 20260506123003 | 49 | 15 | 9.6 | 12.2 | 0.00 | 0.01 | 0.00 | 67 | 1013.8 |
| 20260506121503 | 50 | 23 | 7.0 | 10.4 | 0.00 | 0.01 | 0.00 | 70 | 1013.9 |
| 20260506120003 | 50 | 20 | 9.6 | 12.2 | 0.00 | 0.01 | 0.00 | 74 | 1013.9 |
| 20260506114524 | 48 | 13 | 7.0 | 10.4 | 0.00 | 0.01 | 0.00 | 71 | 1014.0 |
| 20260506113024 | 48 | 22 | 4.3 | 8.7 | 0.00 | 0.01 | 0.00 | 69 | 1014.1 |
| 20260506111503 | 48 | 36 | 2.6 | 4.3 | 0.00 | 0.01 | 0.00 | 65 | 1014.1 |
| 20260506110004 | 48 | 41 | 3.5 | 7.0 | 0.00 | 0.01 | 0.00 | 68 | 1014.2 |
| 20260506104503 | 48 | 27 | 3.5 | 7.0 | 0.00 | 0.01 | 0.00 | 68 | 1014.2 |
| 20260506103003 | 46 | 6 | 2.6 | 4.3 | 0.00 | 0.01 | 0.00 | 71 | 1014.3 |
| 20260506101503 | 46 | 325 | 1.7 | 4.3 | 0.00 | 0.01 | 0.00 | 69 | 1014.4 |
| 20260506100004 | 46 | 259 | 3.5 | 7.8 | 0.00 | 0.01 | 0.00 | 63 | 1014.4 |
| 20260506094503 | 46 | 235 | 2.6 | 7.8 | 0.00 | 0.01 | 0.00 | 67 | 1014.7 |
| 20260506093004 | 46 | 255 | 2.6 | 7.8 | 0.00 | 0.01 | 0.00 | 63 | 1014.8 |
| 20260506091503 | 49 | 253 | 2.6 | 7.0 | 0.00 | 0.01 | 0.00 | 62 | 1014.9 |
| 20260506090024 | 47 | 225 | 2.6 | 4.3 | 0.00 | 0.02 | 0.00 | 65 | 1014.9 |
| 20260506084503 | 46 | 180 | 2.6 | 7.0 | 0.00 | 0.02 | 0.00 | 66 | 1015.0 |
| 20260506083003 | 47 | 170 | 3.5 | 7.8 | 0.00 | 0.02 | 0.00 | 68 | 1015.1 |
| 20260506081503 | 45 | 176 | 1.7 | 4.3 | 0.00 | 0.02 | 0.00 | 68 | 1015.0 |
| 20260506073024 | 44 | 202 | 3.5 | 7.8 | 0.00 | 0.02 | 0.00 | 74 | 1015.1 |
| 20260506071503 | 42 | 201 | 2.6 | 6.1 | 0.00 | 0.02 | 0.00 | 82 | 1015.1 |
| 20260506061503 | 42 | 233 | 0.9 | 6.1 | 0.00 | 0.02 | 0.00 | 86 | 1015.1 |
| 20260506044524 | 33 | 219 | 6.1 | 7.0 | 0.00 | 0.03 | 0.00 | 93 | 1015.5 |
| 20260506043024 | 33 | 222 | 5.2 | 6.1 | 0.00 | 0.03 | 0.00 | 93 | 1015.5 |
| 20260506041503 | 33 | 222 | 2.6 | 3.5 | 0.00 | 0.03 | 0.00 | 93 | 1015.5 |
| 20260506040003 | 33 | 219 | 1.7 | 6.1 | 0.00 | 0.03 | 0.00 | 93 | 1015.6 |
| 20260506034503 | 33 | 219 | 4.3 | 6.1 | 0.00 | 0.03 | 0.00 | 92 | 1015.7 |
| 20260506033024 | 34 | 216 | 6.1 | 7.0 | 0.00 | 0.03 | 0.00 | 93 | 1015.7 |
| 20260506031503 | 34 | 214 | 7.0 | 7.8 | 0.00 | 0.03 | 0.00 | 94 | 1015.7 |
| 20260506030003 | 33 | 215 | 6.1 | 7.8 | 0.00 | 0.03 | 0.00 | 95 | 1015.7 |
| 20260506024503 | 32 | 210 | 3.5 | 7.0 | 0.00 | 0.03 | 0.00 | 94 | 1015.7 |
| 20260506023003 | 32 | 200 | 2.6 | 7.0 | 0.00 | 0.03 | 0.00 | 94 | 1015.9 |
| 20260506021503 | 33 | 193 | 7.0 | 7.8 | 0.00 | 0.03 | 0.00 | 94 | 1015.9 |
| 20260506020005 | 32 | 194 | 4.3 | 6.1 | 0.00 | 0.03 | 0.00 | 94 | 1015.9 |
| 20260506014504 | 33 | 194 | 2.6 | 4.3 | 0.00 | 0.03 | 0.00 | 94 | 1016.1 |
| 20260506013004 | 33 | 165 | 3.5 | 4.3 | 0.00 | 0.03 | 0.00 | 94 | 1016.0 |
| 20260506011525 | 33 | 156 | 3.5 | 6.1 | 0.00 | 0.03 | 0.00 | 94 | 1016.2 |
| 20260506010005 | 33 | 160 | 4.3 | 7.0 | 0.00 | 0.03 | 0.00 | 94 | 1016.2 |
| 20260506004505 | 34 | 163 | 6.1 | 7.8 | 0.00 | 0.03 | 0.00 | 94 | 1016.2 |
| 20260506003025 | 33 | 153 | 7.0 | 7.8 | 0.00 | 0.03 | 0.00 | 94 | 1016.1 |
| 20260506001525 | 33 | 140 | 5.2 | 7.0 | 0.00 | 0.03 | 0.00 | 94 | 1016.4 |
| 20260506000004 | 32 | 145 | 1.7 | 6.1 | 0.00 | 0.03 | 0.00 | 93 | 1016.3 |
| 20260505234504 | 34 | 0 | 0.0 | 0.0 | 0.00 | 0.03 | 0.00 | 91 | 1016.4 |
| 20260505233004 | 35 | 240 | 0.9 | 2.6 | 0.00 | 0.03 | 0.00 | 92 | 1016.4 |
| 20260505231504 | 35 | 240 | 0.9 | 1.7 | 0.00 | 0.04 | 0.00 | 92 | 1016.5 |
| 20260505230005 | 36 | 0 | 0.0 | 0.0 | 0.00 | 0.05 | 0.00 | 92 | 1016.5 |
| 20260505224504 | 37 | 292 | 0.0 | 1.7 | 0.00 | 0.05 | 0.05 | 92 | 1016.8 |
| 20260505223004 | 38 | 263 | 1.7 | 7.0 | 0.00 | 0.06 | 0.05 | 93 | 1016.8 |
| 20260505221525 | 37 | 239 | 0.9 | 2.6 | 0.00 | 0.06 | 0.05 | 93 | 1016.8 |
| 20260505220004 | 37 | 239 | 0.9 | 2.6 | 0.00 | 0.06 | 0.05 | 91 | 1016.8 |
| 20260505214525 | 38 | 239 | 1.7 | 2.6 | 0.01 | 0.06 | 0.05 | 91 | 1016.8 |
| 20260505213004 | 38 | 234 | 1.7 | 2.6 | 0.01 | 0.06 | 0.05 | 91 | 1016.8 |
| 20260505211504 | 38 | 229 | 1.7 | 4.3 | 0.01 | 0.09 | 0.05 | 91 | 1016.6 |
| 20260505210004 | 39 | 299 | 2.6 | 8.7 | 0.01 | 0.10 | 0.05 | 89 | 1016.8 |
| 20260505204504 | 39 | 307 | 7.8 | 12.2 | 0.00 | 0.09 | 0.04 | 87 | 1017.0 |
| 20260505203025 | 39 | 299 | 0.0 | 3.5 | 0.00 | 0.11 | 0.04 | 89 | 1017.0 |
| 20260505201504 | 40 | 0 | 0.0 | 0.0 | 0.00 | 0.12 | 0.04 | 88 | 1017.1 |
| 20260505200004 | 40 | 32 | 0.0 | 1.7 | 0.00 | 0.12 | 0.04 | 85 | 1017.0 |
| 20260505194504 | 41 | 31 | 1.7 | 4.3 | 0.00 | 0.12 | 0.04 | 81 | 1016.9 |
| 20260505193004 | 42 | 36 | 4.3 | 7.0 | 0.00 | 0.12 | 0.04 | 81 | 1016.8 |
| 20260505191504 | 42 | 23 | 3.5 | 8.7 | 0.00 | 0.13 | 0.04 | 79 | 1016.6 |
| 20260505190025 | 42 | 12 | 2.6 | 4.3 | 0.00 | 0.15 | 0.04 | 78 | 1016.7 |
| 20260505184504 | 43 | 14 | 3.5 | 4.3 | 0.00 | 0.15 | 0.04 | 78 | 1016.8 |
| 20260505183025 | 43 | 12 | 2.6 | 4.3 | 0.00 | 0.15 | 0.04 | 77 | 1016.7 |
| 20260505181504 | 43 | 359 | 2.6 | 6.1 | 0.00 | 0.15 | 0.04 | 77 | 1016.8 |
| 20260505180025 | 43 | 349 | 3.5 | 6.1 | 0.00 | 0.15 | 0.04 | 75 | 1016.7 |
| 20260505174504 | 43 | 351 | 3.5 | 7.8 | 0.00 | 0.15 | 0.04 | 73 | 1016.7 |
| 20260505173004 | 44 | 21 | 4.3 | 8.7 | 0.00 | 0.15 | 0.04 | 73 | 1016.7 |
| 20260505171504 | 44 | 22 | 9.6 | 15.6 | 0.00 | 0.15 | 0.04 | 73 | 1016.9 |
| 20260505170004 | 45 | 13 | 5.2 | 10.4 | 0.00 | 0.15 | 0.04 | 68 | 1016.8 |
| 20260505164504 | 46 | 359 | 3.5 | 9.6 | 0.00 | 0.15 | 0.04 | 63 | 1016.7 |
| 20260505163004 | 47 | 4 | 6.1 | 10.4 | 0.00 | 0.15 | 0.04 | 64 | 1016.7 |
| 20260505161525 | 47 | 13 | 5.2 | 9.6 | 0.00 | 0.15 | 0.04 | 67 | 1016.7 |
| 20260505153004 | 47 | 4 | 6.1 | 11.3 | 0.00 | 0.15 | 0.04 | 59 | 1016.6 |
| 20260505151504 | 47 | 360 | 7.8 | 12.2 | 0.00 | 0.15 | 0.04 | 64 | 1016.8 |
| 20260505124504 | 46 | 356 | 10.4 | 15.6 | 0.00 | 0.15 | 0.04 | 71 | 1016.4 |